GFSGL_prec_cloud_021.txt.gz
Cloud_Cover
0 84 100 95 5 22 5 72 5 18 77 7 20 12 32 65 69 99 100 100 100 100 100 100 100 100 100 100 100 100 61 86 100 100 100 100 100 100 100 100 100 100 100
0 89 100 7 5 6 52 20 61 24 8 12 42 99 57 63 100 100 100 100 100 100 100 100 100 100 100 100 99 100 100 100 100 100 100 100 100 100 100 100 100 100 100
0 94 100 100 3 14 93 22 38 28 99 20 28 97 100 69 100 100 98 95 100 100 100 100 100 100 96 76 88 100 100 100 100 100 100 100 100 100 100 100 100 100 100
1 25 100 100 29 19 87 92 24 29 85 94 50 100 100 100 100 100 100 100 100 100 100 100 100 100 100 100 100 100 100 100 100 100 100 100 100 100 100 100 100 100 100
0 6 100 100 94 24 8 79 96 66 58 97 73 76 100 100 100 100 100 100 100 100 100 100 100 100 100 100 100 100 100 100 100 100 100 100 100 100 100 100 100 100 100
0 1 32 100 100 99 8 5 97 100 100 100 99 100 100 100 100 100 99 100 100 100 100 100 100 100 100 100 100 100 100 100 100 100 100 100 100 100 100 100 100 100 100
0 1 5 100 95 100 100 48 65 62 52 100 99 100 98 100 100 100 100 100 100 100 100 100 100 100 100 100 100 100 100 100 100 100 100 100 100 100 100 100 100 100 100
0 3 7 17 86 78 99 75 51 64 10 7 85 100 100 100 100 100 100 100 100 100 100 100 100 100 100 100 100 100 100 100 100 100 100 100 100 100 100 100 100 100 100
0 1 85 70 2 92 100 88 26 46 89 47 12 47 100 100 100 100 100 100 100 100 100 100 100 100 100 100 100 100 100 100 100 100 100 100 100 100 100 100 100 100 100
0 0 2 78 2 5 5 12 56 5 86 100 84 34 92 90 100 100 88 100 100 100 100 100 100 100 100 100 100 100 100 100 100 100 100 100 100 100 100 100 100 100 100
0 0 0 0 0 3 2 5 53 18 8 98 93 100 100 100 100 92 67 100 100 100 100 100 100 100 100 100 100 100 100 100 100 100 100 100 100 100 100 100 100 100 100
0 0 0 0 0 0 4 21 5 5 5 4 10 72 79 100 100 100 94 87 100 100 100 100 100 100 100 96 64 100 100 100 100 100 100 100 100 100 100 100 100 78 41
0 0 0 0 0 0 0 0 0 0 0 0 4 5 21 59 90 79 100 78 42 99 100 100 88 100 76 84 88 100 100 100 100 100 100 100 100 100 100 66 43 6 77
0 0 0 0 0 0 0 0 0 0 0 0 0 0 0 0 4 5 32 7 98 70 96 100 100 93 90 77 57 56 93 88 64 83 89 98 100 100 25 81 100 92 100
0 0 0 0 0 0 0 0 0 0 0 0 0 0 0 0 0 0 4 5 5 28 99 83 74 88 85 98 95 99 24 7 8 22 17 5 10 17 47 6 5 34 6
0 0 0 0 0 0 0 0 0 0 0 0 0 0 0 0 0 0 0 0 0 0 1 4 5 5 3 5 4 9 54 91 75 20 5 5 5 1 5 1 3 4 3
0 0 0 0 0 0 0 0 0 0 0 0 0 0 0 0 0 0 0 0 0 0 0 0 0 0 0 0 0 0 0 0 0 0 0 0 0 0 5 5 5 66 52
0 0 0 0 0 0 0 0 0 0 0 0 0 0 0 0 0 0 0 0 0 0 0 0 0 0 0 0 11 24 1 1 1 1 1 1 1 3 9 83 59 72 98
0 0 0 0 0 0 0 0 0 0 0 0 3 5 11 0 0 0 0 0 0 0 0 2 4 40 57 28 66 87 100 100 37 28 5 5 5 15 88 89 100 78 70
2 1 0 0 0 0 0 0 0 0 0 0 0 2 5 5 5 5 5 2 0 0 0 4 5 6 97 92 100 100 94 87 100 97 52 75 70 77 99 100 100 100 100
0 5 5 5 5 2 3 5 3 0 0 5 4 0 0 3 5 12 9 5 5 5 5 100 100 27 6 92 85 100 99 100 100 100 100 100 99 52 100 100 100 100 100
0 4 5 5 5 5 5 5 5 5 0 0 0 0 0 0 4 5 11 22 21 51 97 100 100 99 99 90 87 51 98 100 98 100 100 100 100 100 100 100 100 100 100
5 5 4 1 1 3 5 5 5 5 5 2 0 4 5 2 4 5 5 68 83 75 96 100 100 100 100 100 100 100 100 100 100 100 100 99 100 100 100 100 100 100 100
5 6 35 12 5 4 1 5 5 5 5 5 5 5 5 5 90 100 79 36 77 100 93 98 100 100 100 100 100 100 100 100 100 100 100 100 100 100 100 100 100 100 100
5 9 97 96 5 2 0 0 5 5 5 5 1 6 6 3 11 82 99 97 96 100 100 100 100 100 100 100 100 100 100 100 100 100 100 100 100 100 100 100 100 100 100
79 56 50 26 5 29 12 5 3 0 5 51 6 5 5 6 5 5 5 34 28 5 5 54 100 100 100 100 100 100 100 100 100 100 100 100 100 100 100 100 100 100 100

GFSGL_prec_cloud_024.txt.gz
Cloud_Cover
0 5 34 63 8 5 5 5 5 5 11 100 5 14 32 64 61 100 100 100 100 90 100 100 100 100 100 100 100 100 100 100 100 100 100 100 100 100 100 100 100 100 100
0 37 90 8 5 5 5 5 77 22 19 72 97 44 100 100 100 100 100 100 99 100 100 100 100 100 100 100 100 100 100 100 100 100 100 100 100 100 100 100 100 100 100
0 100 100 5 5 5 5 25 98 12 100 100 100 100 100 100 100 100 100 100 96 100 100 100 100 100 100 100 100 100 93 100 100 100 100 100 100 100 100 100 100 100 100
0 49 97 34 5 5 40 91 92 92 100 97 100 100 100 100 100 100 100 88 98 100 100 100 93 100 100 100 100 100 95 100 100 100 100 100 100 100 100 100 100 100 100
1 4 69 71 7 5 5 47 88 100 78 85 93 100 100 100 100 100 100 100 100 100 100 100 97 78 82 100 100 100 100 100 100 100 100 100 100 100 100 100 100 100 100
0 0 5 5 31 100 74 30 27 54 100 100 98 82 100 96 100 100 100 100 100 100 100 100 100 100 100 100 100 100 100 100 100 100 100 100 100 100 100 100 100 100 100
0 0 0 19 66 100 100 96 58 16 100 95 100 100 100 100 100 100 100 100 100 100 100 100 100 100 100 100 100 100 100 100 100 100 100 100 100 100 100 100 100 100 100
0 4 3 12 5 21 82 53 42 76 20 75 100 100 98 100 100 100 100 100 100 100 100 100 100 100 98 100 100 100 100 100 100 100 100 100 100 100 100 100 100 100 100
0 6 12 5 12 47 58 51 19 26 64 44 100 100 100 100 100 100 100 99 100 100 100 100 100 100 100 100 100 100 100 100 100 100 100 100 100 100 100 100 100 100 100
0 0 44 99 5 5 5 5 5 58 86 100 91 100 100 100 100 100 100 100 100 100 100 100 100 100 100 100 100 100 100 100 100 100 100 100 100 100 100 100 100 100 100
0 0 0 0 0 4 5 4 5 26 20 77 100 100 100 99 100 100 100 100 100 100 100 100 100 100 100 100 100 100 100 100 100 100 100 100 100 100 100 98 100 100 100
0 0 0 0 0 0 0 5 5 13 7 5 28 71 100 100 100 100 100 96 100 100 100 100 100 100 100 100 100 100 100 100 100 100 100 100 100 100 100 100 100 97 97
0 0 0 0 0 0 0 0 0 0 0 0 5 5 48 67 100 100 100 100 100 100 100 100 100 94 100 100 100 100 100 100 100 100 100 100 92 100 100 100 100 97 86
0 0 0 0 0 0 0 0 0 0 0 0 0 2 2 4 11 60 90 100 100 96 100 100 100 100 100 99 90 41 74 88 86 80 85 89 82 84 64 29 59 78 62
0 0 0 0 0 0 0 0 0 0 0 0 0 0 0 0 0 1 4 5 41 93 100 100 100 100 100 100 100 100 59 55 83 93 92 74 96 89 60 50 32 5 4
0 0 0 0 0 0 0 0 8 9 2 0 0 0 0 0 0 0 0 0 1 2 2 4 27 84 100 100 86 43 34 28 30 27 24 17 6 3 3 1 0 5 5
0 0 0 0 0 0 0 0 0 0 38 15 23 0 0 0 0 0 0 0 0 0 0 0 0 0 0 1 1 0 2 12 0 0 0 0 0 0 0 5 2 5 54
0 0 0 0 0 0 0 0 0 0 0 0 16 10 28 0 0 0 0 0 0 0 0 0 0 0 0 0 0 4 5 24 78 100 100 94 55 86 66 48 22 94 93
0 0 0 0 0 0 0 0 0 0 0 0 0 0 11 3 2 3 0 0 0 0 0 0 0 0 0 2 5 9 79 85 77 77 98 85 74 83 92 68 75 88 76
0 0 0 0 0 0 0 0 0 0 0 0 0 0 0 0 0 0 0 0 0 0 0 0 0 0 4 5 43 77 99 84 93 100 95 96 93 62 83 95 100 89 97
5 0 0 0 0 0 0 0 0 0 0 0 0 0 0 0 0 0 0 0 0 5 5 4 0 0 4 5 5 14 56 95 100 99 99 82 100 98 100 48 100 100 100
5 4 5 5 0 5 0 0 0 0 0 0 0 0 0 0 0 0 0 0 0 0 1 5 5 5 5 25 79 96 99 100 100 100 93 100 100 100 100 100 100 100 100
69 5 5 5 4 5 1 0 0 0 0 0 0 0 0 0 0 0 0 0 1 5 5 5 5 23 39 6 7 33 96 100 100 100 100 100 100 100 100 100 100 100 100
68 7 6 5 5 5 5 5 5 5 0 0 0 5 5 14 6 14 4 2 4 5 5 5 50 95 78 32 71 99 77 92 100 100 100 100 100 100 100 100 100 100 100
100 96 14 74 70 32 100 6 5 4 0 0 1 2 1 5 52 7 5 5 5 45 12 6 5 5 5 5 5 34 61 100 100 100 100 100 100 100 100 100 100 100 100
97 85 74 90 100 100 96 56 92 49 25 51 5 5 5 5 38 100 71 54 43 5 47 6 9 62 54 23 5 6 65 100 100 100 100 100 100 100 100 100 100 100 100

GFSGL_prec_cloud_030.txt.gz
Cloud_Cover
2 6 33 30 32 36 80 44 73 54 70 15 32 23 26 35 40 32 44 100 100 100 100 100 100 100 100 100 100 100 100 100 100 100 100 100 100 100 100 100 100 100 100
0 0 25 33 35 56 84 73 99 93 31 10 33 29 37 53 48 57 92 100 100 100 100 100 100 100 100 100 100 100 100 100 100 100 100 100 100 100 100 100 100 100 100
1 1 27 25 39 72 77 70 98 98 100 15 39 25 38 29 52 86 100 100 100 100 100 100 100 100 100 100 100 100 100 100 100 100 100 100 100 100 100 100 100 100 100
5 2 2 41 40 51 62 72 74 100 100 100 32 7 24 86 80 100 100 100 100 100 100 100 100 100 100 100 100 100 100 100 100 100 100 100 100 100 100 100 100 100 100
3 3 7 23 33 44 59 65 54 100 100 100 100 84 100 100 100 100 100 100 100 100 100 100 100 100 100 100 100 100 100 100 100 100 100 100 100 100 100 100 100 100 100
0 22 1 55 98 86 71 36 28 41 100 100 100 100 100 38 100 100 100 100 100 100 100 100 100 100 100 100 100 100 100 100 100 100 100 100 100 100 100 100 100 100 100
0 23 9 52 72 91 57 99 68 66 100 94 100 96 98 51 100 100 100 100 100 100 100 98 100 100 100 100 100 100 100 100 100 100 100 100 100 100 100 100 100 100 100
0 1 3 14 41 76 92 65 84 100 100 95 100 100 100 44 100 100 100 100 100 100 100 98 98 100 100 100 100 100 100 100 100 100 100 100 100 100 100 100 100 100 100
0 0 0 0 4 34 28 25 62 93 70 97 71 100 100 94 100 100 100 100 100 77 100 99 97 100 100 99 100 100 100 100 100 100 100 100 100 100 100 100 100 100 100
0 0 0 0 3 5 5 12 85 93 67 97 80 88 100 94 100 100 99 98 98 96 100 100 100 100 100 100 100 100 100 100 100 100 100 100 100 100 100 100 100 100 100
0 0 0 0 1 0 0 29 92 74 100 100 75 99 100 100 100 100 100 100 95 97 100 100 100 97 100 100 100 100 100 100 100 100 100 100 100 100 100 100 100 100 100
0 0 0 0 0 0 1 44 74 97 100 100 98 78 100 86 100 100 100 100 100 100 100 100 100 100 100 100 100 100 100 100 100 100 100 100 100 100 100 100 100 100 100
0 0 0 0 0 0 0 12 52 73 7 38 90 99 67 97 62 95 100 100 87 100 100 100 100 100 77 61 100 100 100 100 100 98 100 100 100 100 100 100 100 100 100
0 0 0 0 0 0 0 0 0 4 0 0 0 60 92 98 56 80 43 74 79 94 96 88 100 100 100 100 100 100 100 99 98 100 100 100 100 100 100 100 100 23 16
0 0 0 0 0 0 0 0 0 0 0 0 0 0 6 38 65 100 46 74 26 19 95 5 22 100 100 81 21 100 98 40 70 60 24 97 100 100 26 22 69 49 16
0 0 0 0 0 0 0 0 62 64 0 0 0 0 9 0 0 0 18 66 100 95 71 39 47 17 26 31 32 5 5 7 56 68 5 33 38 55 53 77 94 66 12
0 0 0 0 0 0 0 0 0 33 12 0 0 0 0 0 0 0 0 0 0 54 20 19 30 73 27 89 100 88 64 63 41 74 97 100 100 100 96 73 18 14 36
5 1 0 0 0 0 0 0 0 0 0 0 70 27 62 0 0 0 0 2 7 27 0 0 0 0 0 0 0 0 0 0 0 0 0 3 5 5 5 5 13 50 5
0 5 5 0 0 0 0 0 0 0 0 0 0 49 48 8 3 0 5 0 0 0 0 0 0 0 0 0 0 0 0 0 3 3 5 5 5 5 5 5 5 18 46
0 1 4 5 1 0 0 0 0 0 0 0 0 0 0 16 1 0 0 0 0 0 0 0 0 0 0 0 2 5 56 38 5 5 18 34 27 48 35 98 90 99 100
5 2 0 0 5 4 0 0 0 4 1 0 0 0 0 0 0 0 0 0 0 0 0 0 0 0 0 0 5 5 5 20 48 8 11 10 24 59 6 8 53 5 5
5 5 5 1 0 5 5 5 5 5 5 5 5 2 4 0 0 0 0 0 0 0 0 0 0 0 0 4 5 5 17 12 51 67 15 5 5 5 5 11 18 12 16
5 5 5 0 4 5 5 5 5 5 29 5 28 23 5 28 5 5 1 0 0 3 0 0 0 0 1 5 4 5 8 6 5 5 5 5 5 5 16 54 73 97 68
5 5 5 5 4 5 5 5 5 5 5 7 5 5 6 8 29 18 6 5 5 6 46 48 5 6 5 5 5 5 5 4 8 35 47 5 44 7 81 12 69 93 40
5 5 5 16 11 44 41 13 24 80 79 83 18 5 5 5 5 23 86 70 5 5 50 82 100 31 46 84 95 100 30 25 66 5 5 5 9 7 50 28 15 100 98
6 9 68 83 40 23 35 19 100 82 72 58 49 60 45 5 6 6 76 96 56 82 42 74 100 100 89 97 96 41 34 48 32 84 94 97 5 24 100 93 100 73 100

GFSGL_prec_cloud_033.txt.gz
Cloud_Cover
0 1 92 100 100 98 48 21 38 54 39 88 23 15 29 16 50 93 100 100 100 100 100 100 100 100 100 100 100 100 100 100 100 100 100 100 100 100 100 100 100 100 100
0 0 69 100 100 39 97 11 69 26 58 100 97 100 100 49 66 85 88 73 98 100 100 100 100 100 100 100 100 100 100 100 100 100 100 100 100 100 100 100 100 100 100
0 0 100 100 75 91 96 98 92 90 100 78 100 86 100 100 66 21 99 100 100 100 100 100 100 100 100 100 100 100 100 100 100 100 100 100 100 100 100 100 100 100 100
0 5 40 50 51 100 74 100 94 79 100 100 100 90 99 78 100 100 100 100 100 100 100 100 100 100 100 100 100 100 100 100 100 100 100 100 100 100 100 100 100 100 100
0 0 50 43 61 99 81 58 90 39 97 100 40 97 69 99 100 100 100 100 100 100 100 100 100 100 100 100 100 100 100 100 100 100 100 100 100 100 100 100 100 100 100
0 2 52 100 99 100 94 65 11 58 99 100 99 100 84 90 100 100 100 100 100 100 100 100 100 100 100 100 100 100 100 100 100 100 100 100 100 100 100 100 100 100 100
0 5 67 100 83 100 74 100 100 59 54 100 100 98 86 100 100 100 97 82 81 100 100 100 100 100 100 100 100 100 100 100 100 100 100 100 100 100 100 100 100 100 100
1 0 24 93 78 100 44 72 100 18 82 100 100 92 97 70 100 100 95 100 81 100 100 100 99 100 100 100 100 100 100 100 100 100 100 100 100 100 100 100 100 100 100
5 0 2 1 92 100 86 97 87 84 99 100 96 100 80 54 100 100 100 54 100 100 100 86 100 96 100 100 100 100 100 100 100 100 100 100 100 100 100 100 100 100 100
0 0 0 0 2 46 21 54 72 79 25 98 100 69 98 30 100 100 100 90 72 100 100 98 69 100 100 100 100 100 100 100 100 100 100 100 100 100 100 100 100 100 100
0 0 0 0 4 4 4 66 51 27 43 97 100 100 98 90 49 100 97 91 73 100 94 91 92 89 95 100 98 100 100 100 100 100 100 100 100 100 100 100 100 100 100
0 0 0 0 0 0 4 100 99 85 100 31 100 100 100 100 83 100 99 100 100 100 100 100 99 91 64 49 81 100 99 100 100 100 100 100 100 100 100 100 100 100 100
0 0 0 0 0 0 0 86 98 0 14 100 58 87 93 100 100 100 100 100 99 98 100 99 97 40 97 100 100 100 100 100 100 100 100 100 100 100 100 100 100 100 100
0 0 0 0 0 0 0 0 12 3 0 91 99 82 54 64 58 99 83 38 79 100 100 100 97 94 77 99 93 98 100 100 100 100 100 100 100 100 100 96 100 100 100
0 0 0 0 0 0 0 0 0 0 10 0 35 44 95 89 18 16 49 4 25 73 95 100 100 100 100 100 40 97 100 100 100 100 100 100 100 100 100 100 100 100 100
0 0 0 0 0 0 0 0 61 18 0 0 4 5 92 75 72 100 95 86 99 5 21 36 1 44 100 100 90 9 100 100 100 85 41 40 39 49 80 71 95 99 100
0 0 0 0 0 0 0 0 0 33 11 0 0 0 0 0 0 0 2 22 54 94 75 55 24 5 10 6 16 81 100 34 18 8 8 25 74 89 46 64 69 30 7
0 0 0 0 0 0 0 0 0 0 0 0 70 7 29 0 0 0 2 65 7 27 0 22 3 5 4 2 4 3 1 1 1 9 7 3 5 2 1 5 5 37 36
0 0 0 0 0 0 0 0 0 0 0 0 0 33 20 2 1 5 7 0 0 0 0 0 0 0 0 0 0 0 0 0 0 1 2 3 4 5 5 5 5 6 38
5 0 1 4 0 0 0 0 0 0 0 0 0 0 0 1 0 0 0 0 0 0 0 0 0 0 0 1 3 1 0 0 0 0 2 2 5 5 5 3 5 5 13
5 5 4 0 0 0 0 0 0 0 0 0 0 0 0 0 0 0 0 0 0 0 0 0 0 0 0 0 0 0 3 5 5 5 5 5 5 5 5 5 5 5 5
3 4 5 5 1 0 0 0 0 0 0 0 0 5 4 5 3 0 4 0 0 0 1 0 0 0 0 1 2 5 46 5 5 14 30 5 57 9 5 6 12 5 9
5 5 3 0 5 5 3 0 0 0 5 4 4 5 5 5 29 5 5 5 4 1 3 6 70 3 8 50 22 27 9 24 8 5 5 5 5 9 75 23 5 25 15
1 4 4 5 5 5 5 5 5 5 5 46 29 5 7 32 20 5 14 5 5 23 8 5 11 100 96 90 99 64 14 63 94 16 9 22 50 6 75 22 6 37 85
5 45 48 51 13 5 5 5 5 5 5 5 27 45 8 6 8 62 18 9 5 39 8 5 5 9 28 81 93 89 20 69 24 36 48 36 42 57 93 31 49 9 6
5 14 67 43 64 34 5 5 5 20 14 12 12 28 30 95 52 5 5 5 32 82 32 6 58 84 100 100 93 76 78 93 90 100 38 95 100 77 99 50 77 88 39

GFSGL_prec_cloud_036.txt.gz
Cloud_Cover
0 0 90 66 94 56 5 3 5 27 40 3 1 2 45 66 98 100 100 48 100 100 100 100 100 100 100 99 96 62 100 96 48 98 100 100 100 100 100 100 100 100 100
0 7 93 100 96 80 5 5 5 20 84 99 62 58 49 100 98 33 46 100 100 100 100 100 100 100 100 100 100 100 100 100 100 100 100 100 100 100 100 100 100 100 100
22 5 96 77 100 0 63 53 28 74 100 100 100 96 100 95 92 88 98 100 100 100 100 100 100 100 100 100 100 100 100 100 100 100 100 100 100 100 100 100 100 100 100
9 30 89 6 4 8 5 5 5 23 99 100 100 100 100 98 100 100 88 100 100 100 100 100 100 100 100 100 100 100 100 100 100 100 100 100 100 100 100 100 100 100 100
0 65 24 1 14 5 54 93 5 38 100 100 96 63 50 100 100 100 100 100 100 100 100 100 100 100 100 100 100 100 100 100 100 100 100 100 100 100 100 100 100 100 100
0 21 36 30 94 8 78 92 100 69 95 100 33 0 98 100 100 100 100 100 100 100 100 100 100 100 100 100 100 100 100 100 100 100 100 100 100 100 100 100 100 100 100
0 31 16 100 30 76 98 75 92 65 67 74 54 68 100 100 100 94 100 100 100 100 100 100 100 100 100 100 100 100 100 100 100 100 100 100 100 100 100 100 100 100 100
0 32 6 41 23 7 94 99 70 14 21 82 33 85 11 100 95 100 100 100 100 100 100 100 100 100 100 100 100 100 100 100 100 100 100 100 100 100 100 100 100 100 100
0 11 29 4 59 7 56 97 100 28 73 100 82 92 98 100 100 100 100 100 100 100 100 100 100 100 100 100 100 100 100 100 100 100 100 100 100 100 100 100 100 100 100
0 8 37 1 5 24 3 72 99 42 92 100 100 100 73 100 100 100 78 100 100 100 100 100 100 100 100 100 100 100 100 100 100 100 100 100 100 100 100 100 100 100 100
0 0 17 1 18 0 1 10 100 11 23 100 85 18 65 20 100 100 100 81 100 100 100 90 100 100 100 100 100 100 100 100 100 100 100 100 100 100 100 100 100 100 100
0 0 0 0 0 0 0 1 20 27 73 100 100 98 42 69 100 100 100 58 99 100 100 100 89 75 100 100 100 100 100 98 100 100 98 100 100 100 100 100 100 100 100
0 0 0 0 0 0 2 0 0 1 6 100 99 100 100 35 100 100 100 100 97 93 100 100 92 93 57 46 100 99 99 94 85 97 93 100 100 100 100 100 100 100 100
0 0 0 0 0 0 0 0 0 0 5 99 91 94 99 100 100 100 100 100 94 99 100 100 100 53 11 94 99 77 98 100 100 100 100 100 100 100 100 100 100 100 100
0 0 0 0 0 0 0 17 64 6 0 87 100 30 99 14 36 94 99 99 100 100 88 74 92 100 100 91 100 100 100 100 100 100 100 100 100 100 100 100 100 100 100
0 0 0 0 0 0 0 0 72 2 0 0 0 0 19 100 22 4 0 0 36 100 92 100 100 100 100 99 100 78 8 100 100 100 100 95 76 79 68 47 17 34 40
0 0 0 0 0 0 0 0 0 33 22 6 0 0 0 0 4 9 95 99 31 7 0 6 16 98 100 91 82 100 100 13 89 100 100 100 100 100 100 10 5 63 5
0 0 0 0 0 0 0 0 0 0 0 0 46 3 9 0 0 0 1 4 16 34 5 5 4 3 5 5 5 10 34 79 24 1 0 0 1 5 5 5 5 5 10
0 0 0 0 0 0 0 0 0 0 0 0 0 2 23 10 12 6 27 0 0 0 0 0 18 36 0 0 0 0 0 0 1 5 5 5 5 5 5 5 5 5 5
0 0 0 0 0 0 0 0 0 0 0 0 0 0 0 1 1 0 0 0 0 0 0 0 0 43 16 0 0 0 4 5 5 5 4 5 5 14 22 5 5 5 5
0 0 0 0 0 0 0 0 0 0 0 0 0 0 0 0 0 0 1 0 0 0 0 0 0 0 0 1 5 5 5 5 4 0 5 5 5 5 5 7 12 57 7
0 0 0 0 0 0 0 0 0 0 0 0 5 5 5 5 5 5 5 4 5 3 0 2 0 4 1 0 0 0 4 5 6 8 9 16 44 6 92 59 62 69 83
2 4 5 2 0 0 0 0 0 0 0 0 1 1 2 4 12 5 5 5 11 20 5 1 4 5 5 6 83 68 6 43 64 56 98 26 68 64 68 78 21 77 18
71 61 5 2 0 3 0 5 1 5 0 4 3 5 4 5 0 2 5 5 0 0 2 11 20 5 17 65 59 88 80 100 56 82 76 96 88 78 54 13 5 8 71
6 86 99 23 0 2 3 4 2 0 2 0 4 5 5 5 5 5 5 4 3 5 5 4 10 0 95 99 100 100 81 37 47 89 65 97 83 8 73 6 19 100 100
6 0 0 2 3 3 5 5 5 5 0 0 0 1 5 5 4 3 5 5 1 0 3 4 66 5 5 19 99 54 99 100 100 100 100 100 88 100 100 100 82 100 100